Regional Weather Roundup
Issued by NWS State College, PA

Home | Current Version | Previous Version | Graphics & Text | Print | Product List | Glossary On
Versions: 1 2 3 4 5 6 7 8 9 10 11 12 13 14 15 16 17 18 19 20 21 22 23 24 25 26 27 28 29 30 31 32 33 34 35 36 37 38 39 40 41 42 43 44 45 46 47 48 49 50
350
ASUS41 KCTP 242203
RWRCTP

REGIONAL WEATHER ROUNDUP
NATIONAL WEATHER SERVICE STATE COLLEGE PA
600 PM EDT TUE MAY 24 2016

Note: "fair" indicates few or no clouds below 12,000 feet with no
significant weather and/or obstructions to visibility.

* = STATION THAT DOES NOT REPORT PRECIPITATION /E.G. RAIN...SNOW...ETC/
    THUNDER OR FOG.

PAZ002>004-007>009-013>016-020>023-029>032-242300-
WESTERN PENNSYLVANIA

CITY           SKY/WX    TMP DP  RH WIND       PRES   REMARKS
ERIE           SUNNY     77  36  22 W9        30.03S
MEADVILLE      SUNNY     74  40  29 W12       30.05F
FRANKLIN*      SUNNY     75  43  31 NW10G16   30.07S
NEW CASTLE     FAIR      80  47  31 W8G16     30.04F
BEAVER COUNTY  SUNNY     77  46  33 W6        30.05F
BUTLER*        SUNNY     77  46  33 W8        30.07F
PITTSBURGH INT MOSUNNY   80  44  27 W13       30.04F
PITTSBURGH     SUNNY     78  44  29 VRB7      30.04F
INDIANA*       MOSUNNY   77  48  36 W10G17    30.07F
LATROBE        MOSUNNY   77  46  33 W12       30.05F
WASHINGTON CO* SUNNY     77  48  36 W5        30.07S
$$

PAZ004>006-010>012-017>019-024>028-033>037-041-042-045-046-049>053-242300-
CENTRAL PENNSYLVANIA

CITY           SKY/WX    TMP DP  RH WIND       PRES   REMARKS
BRADFORD       SUNNY     73  33  23 NW15      30.05S
DUBOIS         SUNNY     75  44  33 NW9       30.03F
CLEARFIELD     SUNNY     78  40  25 NW13      30.01F
JOHNSTOWN      MOSUNNY   73  42  32 W12G20    30.07F
ALTOONA        SUNNY     75  43  31 NW15      30.03F
STATE COLLEGE  MOSUNNY   79  45  29 W10G25    29.99S
WILLIAMSPORT   SUNNY     83  36  18 N16       29.91R
SELINSGROVE    MOSUNNY   81  46  29 NW3       29.93S
FT INDIANTOWN  NOT AVBL
CAPITAL CITY   MOSUNNY   82  44  26 W16G23    29.94S
HARRISBURG     MOSUNNY   81  47  30 NW14      29.93S
YORK           SUNNY     80  47  31 W9G17     29.96S
$$

PAZ038>040-043-044-047-048-054-055-060>062-067>071-242300-
EASTERN PENNSYLVANIA

CITY           SKY/WX    TMP DP  RH WIND       PRES   REMARKS
SCRANTON       SUNNY     81  38  21 N14       29.92S
MOUNT POCONO   CLOUDY    67  32  27 NW14G22   29.96R
ALLENTOWN      CLOUDY    83  41  22 N14       29.90R
QUAKERTOWN*    CLOUDY    77  45  31 CALM      29.92R
READING        PTSUNNY   82  45  27 NW13      29.91R
LANCASTER      PTSUNNY   79  48  33 NW15      29.93S
COATESVILLE    CLEAR     79  46  31 W14G20    29.95S
POTTSTOWN      PTSUNNY   79  44  28 NW9       29.92S
BLUE BELL      CLOUDY    77  46  33 CALM      29.90R
DOYLESTOWN     CLOUDY    78  40  25 NW5       29.89R
WILLOW GROVE   NOT AVBL
NORTH PHILA    MOSUNNY   80  47  31 W12       29.91R
PHILADELPHIA   PTSUNNY   82  41  23 W13       29.91S
$$




USA.gov is the U.S. government's official web portal to all federal, state and local government web resources and services.